Date String (YYYY-MM-DD hh:mm:ss) UTC,Instrument flags,absolute air pressure of the measurement (hPa),sample flow rate (lpm),inlet stack bypass flow (lpm),air temperature of the measurement (°C),ambient temperature measured by the external sensor (°C),aerosol sample conditioner tube jacket temperature (°C),OPC LED temperature (°C),internal box temperature (°C),relative humidity of the measurement (%),span deviation,mass concentration of particles derived from Lorenz-Mie calculation of OPC scattering (μg/m³),mass concentration of particles derived from Lorenz-Mie calculation of OPC scattering (μg/m³),mass concentration of particles derived from Lorenz-Mie calculation of OPC scattering (μg/m³)
DateTimeUTC,F1_M11,P_M11,Q1_M11,Q2_M11,T1_M11,T2_M11,T3_M11,T4_M11,T5_M11,U1_M11,ZSPAN_M11,X2_M11,X0_M11,X1_M11
2024-05-05 04:00:00,SystemResetWarning,0825.4,5.00,000.00,025.8,025.1,000.0,034.3,027.6,019.7,0000.0,0004.57,0013.77,0003.43
2024-05-05 04:01:00,SystemResetWarning,0825.4,5.00,000.00,025.8,025.1,000.0,034.3,027.6,019.6,0000.0,0004.57,0014.95,0003.42
2024-05-05 04:02:00,SystemResetWarning,0825.4,5.00,000.00,025.8,025.1,000.0,034.3,027.6,019.6,0000.0,0004.57,0014.40,0003.40
2024-05-05 04:03:00,SystemResetWarning,0825.4,4.99,000.00,025.8,025.1,000.0,034.3,027.6,019.4,0000.0,0004.60,0014.09,0003.39
2024-05-05 04:04:00,SystemResetWarning,0825.4,4.99,000.00,025.8,025.1,000.0,034.3,027.6,019.4,0000.0,0004.60,0014.18,0003.40
2024-05-05 04:05:00,SystemResetWarning,0825.3,5.00,000.00,025.8,025.1,000.0,034.3,027.6,019.3,0000.0,0004.58,0013.79,0003.40
2024-05-05 04:06:00,SystemResetWarning,0825.4,4.99,000.00,025.8,025.1,000.0,034.3,027.6,019.3,0000.0,0004.52,0013.05,0003.39
2024-05-05 04:07:00,SystemResetWarning,0825.4,5.00,000.00,025.8,025.1,000.0,034.3,027.7,019.3,0000.0,0004.50,0013.35,0003.39
2024-05-05 04:08:00,SystemResetWarning,0825.4,5.01,000.00,025.8,025.1,000.0,034.3,027.7,019.3,0000.0,0004.47,0014.09,0003.38
2024-05-05 04:09:00,SystemResetWarning,0825.4,5.01,000.00,025.8,025.1,000.0,034.3,027.7,019.3,0000.0,0004.45,0013.79,0003.38
2024-05-05 04:10:00,SystemResetWarning,0825.4,5.00,000.00,025.8,025.1,000.0,034.3,027.7,019.2,0000.0,0004.48,0013.16,0003.38
2024-05-05 04:11:00,SystemResetWarning,0825.4,5.00,000.00,025.8,025.1,000.0,034.3,027.7,019.2,0000.0,0004.47,0012.68,0003.37
2024-05-05 04:12:00,SystemResetWarning,0825.4,4.99,000.00,025.9,025.1,000.0,034.3,027.7,019.2,0000.0,0004.42,0011.26,0003.37
2024-05-05 04:13:00,SystemResetWarning,0825.4,4.99,000.00,025.9,025.1,000.0,034.3,027.7,019.2,0000.0,0004.42,0011.71,0003.37
2024-05-05 04:14:00,SystemResetWarning,0825.4,5.00,000.00,025.9,025.1,000.0,034.4,027.7,019.1,0000.0,0004.39,0012.77,0003.37
2024-05-05 04:15:00,SystemResetWarning,0825.4,5.00,000.00,025.9,025.1,000.0,034.4,027.7,018.9,0000.0,0004.33,0013.08,0003.36
2024-05-05 04:16:00,SystemResetWarning,0825.4,5.00,000.00,025.9,025.2,000.0,034.3,027.7,018.9,0000.0,0004.35,0013.44,0003.35
2024-05-05 04:17:00,SystemResetWarning,0825.4,5.00,000.00,025.9,025.2,000.0,034.4,027.7,018.9,0000.0,0004.34,0013.29,0003.35
2024-05-05 04:18:00,SystemResetWarning,0825.3,5.01,000.00,025.9,025.2,000.0,034.4,027.7,018.9,0000.0,0004.37,0014.07,0003.35
2024-05-05 04:19:00,SystemResetWarning,0825.4,5.00,000.00,025.9,025.2,000.0,034.3,027.7,018.8,0000.0,0004.37,0013.52,0003.34
2024-05-05 04:20:00,SystemResetWarning,0825.4,5.00,000.00,025.9,025.3,000.0,034.3,027.7,018.8,0000.0,0004.36,0013.77,0003.33
2024-05-05 04:21:00,SystemResetWarning,0825.4,5.00,000.00,025.9,025.3,000.0,034.3,027.7,018.8,0000.0,0004.30,0013.87,0003.32
2024-05-05 04:22:00,SystemResetWarning,0825.4,4.99,000.00,026.0,025.3,000.0,034.3,027.8,018.8,0000.0,0004.28,0013.83,0003.32
2024-05-05 04:23:00,SystemResetWarning,0825.4,5.00,000.00,026.0,025.3,000.0,034.3,027.8,018.8,0000.0,0004.28,0014.74,0003.30
2024-05-05 04:24:00,SystemResetWarning,0825.4,5.00,000.00,026.0,025.4,000.0,034.4,027.8,019.6,0000.0,0004.29,0015.77,0003.30
2024-05-05 04:25:00,SystemResetWarning,0825.4,5.00,000.00,026.0,025.4,000.0,034.4,027.9,019.3,0000.0,0004.31,0015.34,0003.31
2024-05-05 04:26:00,SystemResetWarning,0825.4,5.00,000.00,026.0,025.4,000.0,034.4,027.9,019.6,0000.0,0004.32,0015.29,0003.31
2024-05-05 04:27:00,SystemResetWarning,0825.4,5.01,000.00,026.0,025.4,000.0,034.4,027.9,020.0,0000.0,0004.31,0014.07,0003.32
2024-05-05 04:28:00,SystemResetWarning,0825.4,5.00,000.00,026.0,025.4,000.0,034.4,027.9,020.1,0000.0,0004.34,0014.22,0003.34
2024-05-05 04:29:00,SystemResetWarning,0825.3,4.99,000.00,026.0,024.7,000.0,034.5,027.4,020.0,0000.0,0004.35,0013.74,0003.36
2024-05-05 04:30:00,SystemResetWarning,0825.3,5.00,000.00,025.5,022.4,000.0,034.5,026.2,020.3,0000.0,0004.42,0013.47,0003.39
2024-05-05 04:31:00,SystemResetWarning,0825.3,5.01,000.00,025.1,021.8,000.0,034.4,025.7,020.7,0000.0,0004.48,0013.22,0003.42
2024-05-05 04:32:00,SystemResetWarning,0825.2,4.98,000.00,025.0,022.1,000.0,034.2,025.9,020.9,0000.0,0004.53,0013.22,0003.44
2024-05-05 04:33:00,SystemResetWarning,0825.3,5.01,000.00,024.9,022.5,000.0,034.0,026.1,021.3,0000.0,0004.60,0013.97,0003.47
2024-05-05 04:34:00,SystemResetWarning,0825.3,5.01,000.00,024.9,022.9,000.0,033.9,026.3,021.4,0000.0,0004.72,0014.21,0003.51
2024-05-05 04:35:00,SystemResetWarning,0825.4,4.99,000.00,025.0,023.2,000.0,033.8,026.5,021.5,0000.0,0004.75,0013.85,0003.55
2024-05-05 04:36:00,SystemResetWarning,0825.4,4.98,000.00,025.0,023.5,000.0,033.8,026.6,021.5,0000.0,0004.73,0013.17,0003.56
2024-05-05 04:37:00,SystemResetWarning,0825.4,5.01,000.00,025.0,023.7,000.0,033.7,026.7,021.7,0000.0,0004.78,0013.26,0003.59
2024-05-05 04:38:00,SystemResetWarning,0825.4,5.01,000.00,025.0,023.9,000.0,033.7,026.7,021.8,0000.0,0004.83,0013.67,0003.61
2024-05-05 04:39:00,SystemResetWarning,0825.4,5.00,000.00,025.1,024.0,000.0,033.7,026.8,021.6,0000.0,0004.89,0014.46,0003.63
2024-05-05 04:40:00,SystemResetWarning,0825.4,5.00,000.00,025.1,024.2,000.0,033.7,026.9,021.4,0000.0,0004.94,0014.57,0003.66
2024-05-05 04:41:00,SystemResetWarning,0825.4,4.99,000.00,025.1,024.3,000.0,033.6,026.9,021.2,0000.0,0004.88,0014.37,0003.68
2024-05-05 04:42:00,SystemResetWarning,0825.4,5.00,000.00,025.1,024.3,000.0,033.6,027.0,021.3,0000.0,0004.88,0014.74,0003.70
2024-05-05 04:43:00,SystemResetWarning,0825.4,5.00,000.00,025.2,024.4,000.0,033.6,027.0,021.4,0000.0,0004.92,0015.33,0003.74
2024-05-05 04:44:00,SystemResetWarning,0825.4,5.01,000.00,025.2,024.5,000.0,033.6,027.0,021.3,0000.0,0004.92,0014.85,0003.77
2024-05-05 04:45:00,SystemResetWarning,0825.4,5.00,000.00,025.2,024.5,000.0,033.7,027.1,021.3,0000.0,0004.89,0013.98,0003.79
2024-05-05 04:46:00,SystemResetWarning,0825.4,5.00,000.00,025.2,024.6,000.0,033.7,027.1,021.2,0000.0,0004.95,0012.95,0003.82
2024-05-05 04:47:00,SystemResetWarning,0825.4,5.00,000.00,025.3,024.6,000.0,033.7,027.1,021.2,0000.0,0004.96,0013.81,0003.85
2024-05-05 04:48:00,SystemResetWarning,0825.3,4.99,000.00,025.3,024.6,000.0,033.7,027.1,021.1,0000.0,0004.93,0014.70,0003.86
2024-05-05 04:49:00,SystemResetWarning,0825.3,4.99,000.00,025.3,024.7,000.0,033.7,027.1,021.1,0000.0,0004.91,0014.50,0003.87
2024-05-05 04:50:00,SystemResetWarning,0825.2,5.00,000.00,025.3,024.7,000.0,033.7,027.2,021.1,0000.0,0004.91,0014.20,0003.88
2024-05-05 04:51:00,SystemResetWarning,0825.3,5.01,000.00,025.3,024.7,000.0,033.7,027.2,021.0,0000.0,0004.89,0014.52,0003.88
2024-05-05 04:52:00,SystemResetWarning,0825.3,5.01,000.00,025.3,024.7,000.0,033.7,027.2,020.9,0000.0,0004.91,0015.11,0003.89
2024-05-05 04:53:00,SystemResetWarning,0825.3,4.98,000.00,025.3,024.7,000.0,033.7,027.2,020.9,0000.0,0004.93,0016.06,0003.90
2024-05-05 04:54:00,SystemResetWarning,0825.3,5.00,000.00,025.3,024.7,000.0,033.7,027.2,020.8,0000.0,0004.92,0015.46,0003.89
2024-05-05 04:55:00,SystemResetWarning,0825.2,5.02,000.00,025.3,024.7,000.0,033.7,027.2,020.6,0000.0,0004.94,0016.32,0003.88
2024-05-05 04:56:00,SystemResetWarning,0825.2,4.99,000.00,025.3,024.7,000.0,033.7,027.1,020.6,0000.0,0005.00,0016.95,0003.87
2024-05-05 04:57:00,SystemResetWarning,0825.2,4.99,000.00,025.4,024.7,000.0,033.7,027.2,020.5,0000.0,0004.95,0016.90,0003.85
2024-05-05 04:58:00,SystemResetWarning,0825.2,5.00,000.00,025.4,024.7,000.0,033.7,027.2,020.5,0000.0,0004.95,0016.48,0003.82
2024-05-05 04:59:00,SystemResetWarning,0825.2,5.02,000.00,025.3,024.7,000.0,033.7,027.1,020.3,0000.0,0004.96,0015.60,0003.81
